EW4088 Weather Reports


Display with metric or nautical units.
time (UTC)temp
F
wind
direction
speed
MPH
gust
MPH
rain 1hr
in
rain 24hr
in
rain mn
in
humidity
%
barometer
mb
20200128142315 15 297 0.0 0.0 0.00 0.00 0.00 93 1019.6
20200128141815 15 341 0.0 0.0 0.00 0.00 0.00 93 1019.5
20200128141315 15 281 0.0 0.0 0.00 0.00 0.00 93 1019.5
20200128140816 15 316 0.0 0.0 0.00 0.00 0.00 93 1019.4
20200128140315 15 38 0.0 0.0 0.00 0.00 0.00 93 1019.4
20200128135815 15 308 0.0 0.0 0.00 0.00 0.00 93 1019.3
20200128135315 15 308 0.0 0.0 0.00 0.00 0.00 93 1019.3
20200128134815 15 35 0.0 0.0 0.00 0.00 0.00 93 1019.2
20200128134316 15 330 0.0 0.0 0.00 0.00 0.00 93 1019.2
20200128133815 15 37 0.0 0.0 0.00 0.00 0.00 93 1019.2
20200128133315 15 40 0.0 0.0 0.00 0.00 0.00 93 1019.2
20200128132815 15 293 0.0 0.0 0.00 0.00 0.00 93 1019.1
20200128132315 15 335 0.0 0.0 0.00 0.00 0.00 93 1019.0
20200128131815 15 304 0.0 0.0 0.00 0.00 0.00 93 1019.0
20200128131315 15 287 0.0 0.0 0.00 0.00 0.00 93 1018.9
20200128130814 15 292 0.0 0.0 0.00 0.00 0.00 93 1018.8
20200128130315 16 28 0.0 0.0 0.00 0.00 0.00 93 1018.8
20200128125814 16 286 0.0 0.0 0.00 0.00 0.00 93 1018.8
20200128125315 16 269 0.0 0.0 0.00 0.00 0.00 94 1018.9
20200128124815 16 317 0.0 0.0 0.00 0.00 0.00 94 1018.9
20200128124314 16 45 0.0 0.0 0.00 0.00 0.00 94 1018.8
20200128123815 16 303 0.0 0.0 0.00 0.00 0.00 94 1018.8
20200128123315 16 306 0.0 0.0 0.00 0.00 0.00 94 1018.7
20200128122814 16 1 0.0 0.0 0.00 0.00 0.00 94 1018.5
20200128122315 16 0 0.0 0.0 0.00 0.00 0.00 94 1018.5
20200128121814 16 0 0.0 0.0 0.00 0.00 0.00 94 1018.4
20200128121315 16 0 0.0 0.0 0.00 0.00 0.00 94 1018.3
20200128120815 16 236 0.0 0.0 0.00 0.00 0.00 94 1018.1
20200128120315 16 320 0.0 0.0 0.00 0.00 0.00 94 1018.1
20200128115815 16 319 0.0 0.0 0.00 0.00 0.00 94 1018.2
20200128115315 16 294 0.0 0.0 0.00 0.00 0.00 94 1018.2
20200128114815 16 26 0.0 0.0 0.00 0.00 0.00 94 1018.2
20200128114315 16 288 0.0 0.0 0.00 0.00 0.00 94 1018.1
20200128113815 16 302 0.0 0.0 0.00 0.00 0.00 94 1018.1
20200128113314 16 34 0.0 0.0 0.00 0.00 0.00 94 1018.0
20200128112814 16 279 0.0 0.0 0.00 0.00 0.00 93 1017.9
20200128112315 16 279 0.0 0.0 0.00 0.00 0.00 93 1017.8
20200128111814 16 275 0.0 0.0 0.00 0.00 0.00 93 1017.8
20200128111315 16 278 0.0 0.0 0.00 0.00 0.00 93 1017.8
20200128110815 16 286 0.0 0.0 0.00 0.00 0.00 93 1017.8
20200128110316 16 289 0.0 0.0 0.00 0.00 0.00 93 1017.9
20200128105815 16 303 0.0 0.0 0.00 0.00 0.00 93 1017.8
20200128105315 16 29 0.0 0.0 0.00 0.00 0.00 93 1017.8
20200128104815 16 321 0.0 0.0 0.00 0.00 0.00 93 1017.8
20200128104315 16 294 0.0 0.0 0.00 0.00 0.00 93 1017.8
20200128103815 16 309 0.0 0.0 0.00 0.00 0.00 93 1017.7
20200128103315 16 313 0.0 0.0 0.00 0.00 0.00 93 1017.7
20200128102815 17 306 0.0 0.0 0.00 0.00 0.00 93 1017.7
20200128102315 17 282 0.0 0.0 0.00 0.00 0.00 93 1017.8
20200128101815 17 280 0.0 0.0 0.00 0.00 0.00 93 1017.9
20200128101315 17 298 0.0 0.0 0.00 0.00 0.00 93 1017.9
20200128100814 17 290 0.0 0.0 0.00 0.00 0.00 93 1017.9
20200128100315 17 331 0.0 0.0 0.00 0.00 0.00 93 1017.9
20200128095815 17 287 0.0 0.0 0.00 0.00 0.00 93 1018.1
20200128095315 17 290 0.0 0.0 0.00 0.00 0.00 93 1018.0
20200128094815 17 37 0.0 0.0 0.00 0.00 0.00 93 1018.0
20200128094315 17 291 0.0 0.0 0.00 0.00 0.00 93 1017.9
20200128093816 17 308 0.0 0.0 0.00 0.00 0.00 93 1017.9
20200128093314 17 271 0.0 0.0 0.00 0.00 0.00 93 1017.9
20200128092815 18 277 0.0 0.0 0.00 0.00 0.00 94 1017.9
20200128092315 18 276 0.0 0.0 0.00 0.00 0.00 94 1017.8
20200128091815 18 287 0.0 0.0 0.00 0.00 0.00 94 1017.8
20200128091315 18 300 0.0 0.0 0.00 0.00 0.00 94 1017.9
20200128090815 18 291 0.0 0.0 0.00 0.00 0.00 94 1018.0
20200128090315 18 283 0.0 0.0 0.00 0.00 0.00 94 1017.9
20200128085815 18 290 0.0 0.0 0.00 0.00 0.00 94 1017.9
20200128085315 18 291 0.0 0.0 0.00 0.00 0.00 94 1017.9
20200128084814 18 289 0.0 0.0 0.00 0.00 0.00 94 1017.9
20200128084314 18 306 0.0 0.0 0.00 0.00 0.00 94 1017.8
20200128083814 18 306 0.0 0.0 0.00 0.00 0.00 94 1017.8
20200128083315 18 281 0.0 0.0 0.00 0.00 0.00 94 1017.7
20200128082814 18 348 0.0 0.0 0.00 0.00 0.00 94 1017.7
20200128082315 18 355 0.0 0.0 0.00 0.00 0.00 94 1017.7
20200128081815 19 355 0.0 0.0 0.00 0.00 0.00 94 1017.8
20200128081314 19 279 0.0 0.0 0.00 0.00 0.00 94 1017.9
20200128080815 19 301 0.0 0.0 0.00 0.00 0.00 94 1017.8
20200128080314 19 298 0.0 0.0 0.00 0.00 0.00 94 1017.9
20200128075814 19 247 0.0 0.0 0.00 0.00 0.00 94 1017.8
20200128075314 19 293 0.0 0.0 0.00 0.00 0.00 94 1017.8
20200128074815 19 274 0.0 0.0 0.00 0.00 0.00 94 1017.8
20200128074314 19 274 0.0 0.0 0.00 0.00 0.00 94 1017.7
20200128073815 19 46 0.0 0.0 0.00 0.00 0.00 94 1017.6
20200128073314 19 296 0.0 0.0 0.00 0.00 0.00 94 1017.6
20200128072814 20 296 0.0 0.0 0.00 0.00 0.00 94 1017.5
20200128072314 20 46 0.0 0.0 0.00 0.00 0.00 94 1017.5
20200128071815 20 232 0.0 0.0 0.00 0.00 0.00 94 1017.5
20200128071314 20 9 0.0 0.0 0.00 0.00 0.00 94 1017.4
20200128070815 20 294 0.0 0.0 0.00 0.00 0.00 94 1017.5
20200128070315 20 273 0.0 0.0 0.00 0.00 0.00 94 1017.4
20200128065814 20 249 0.0 0.0 0.00 0.00 0.00 94 1017.4
20200128065314 20 270 0.0 0.0 0.00 0.00 0.00 94 1017.4
20200128064815 20 270 0.0 0.0 0.00 0.00 0.00 94 1017.3
20200128064314 20 285 0.0 0.0 0.00 0.00 0.00 94 1017.4
20200128063814 20 289 0.0 0.0 0.00 0.00 0.00 94 1017.3
20200128063314 21 305 0.0 0.0 0.00 0.00 0.00 94 1017.2
20200128062815 21 299 0.0 0.0 0.00 0.00 0.00 94 1017.3
20200128062314 21 303 0.0 0.0 0.00 0.00 0.00 94 1017.3
20200128061814 21 282 0.0 0.0 0.00 0.00 0.00 93 1017.2
20200128061314 21 294 0.0 0.0 0.00 0.00 0.00 93 1017.3
20200128060825 21 283 0.0 0.0 0.00 0.00 0.00 93 1017.2
20200128060314 21 271 0.0 0.0 0.00 0.00 0.00 93 1017.3
20200128055814 21 277 0.0 0.0 0.00 0.00 0.00 93 1017.4
20200128055314 21 301 0.0 0.0 0.00 0.00 0.00 93 1017.4
20200128054814 22 9 0.0 0.0 0.00 0.00 0.00 93 1017.4
20200128054315 22 280 0.0 0.0 0.00 0.00 0.00 93 1017.3
20200128053815 22 278 0.0 0.0 0.00 0.00 0.00 93 1017.4
20200128053314 22 28 0.0 0.0 0.00 0.00 0.00 93 1017.3
20200128052814 22 275 0.0 0.0 0.00 0.00 0.00 93 1017.3
20200128052306 22 261 0.0 0.0 0.00 0.00 0.00 93 1017.2
20200128051808 22 252 0.0 0.0 0.00 0.00 0.00 93 1017.1
20200128051306 22 280 0.0 0.0 0.00 0.00 0.00 93 1017.1
20200128050806 22 270 0.0 0.0 0.00 0.00 0.00 93 1017.1
20200128050306 23 284 0.0 0.0 0.00 0.00 0.00 93 1017.1
20200128045806 23 28 0.0 0.0 0.00 0.00 0.00 93 1017.0
20200128045306 23 265 0.0 0.0 0.00 0.00 0.00 93 1017.0
20200128044806 23 264 0.0 0.0 0.00 0.00 0.00 92 1017.0
20200128044307 23 275 0.0 0.0 0.00 0.00 0.00 92 1017.0
20200128043807 23 269 0.0 0.0 0.00 0.00 0.00 92 1017.0
20200128043307 23 236 0.0 1.0 0.00 0.00 0.00 92 1017.1
20200128042806 23 276 0.0 0.0 0.00 0.00 0.00 92 1017.0
20200128042306 23 284 0.0 0.0 0.00 0.00 0.00 92 1017.0
20200128041806 23 302 0.0 0.0 0.00 0.00 0.00 92 1017.0
20200128041306 23 288 0.0 0.0 0.00 0.00 0.00 92 1016.9
20200128040806 24 273 0.0 0.0 0.00 0.00 0.00 92 1016.9
20200128040306 24 279 0.0 0.0 0.00 0.00 0.00 92 1017.0
20200128035806 24 281 0.0 0.0 0.00 0.00 0.00 92 1017.0
20200128035306 24 279 0.0 0.0 0.00 0.00 0.00 92 1016.9
20200128034806 24 275 0.0 0.0 0.00 0.00 0.00 92 1016.8
20200128034306 24 250 0.0 0.0 0.00 0.00 0.00 92 1016.8
20200128033806 24 248 0.0 0.0 0.00 0.00 0.00 92 1016.8
20200128033306 24 258 0.0 0.0 0.00 0.00 0.00 92 1016.8
20200128032806 24 253 0.0 0.0 0.00 0.00 0.00 92 1016.8
20200128032307 24 222 0.0 0.0 0.00 0.00 0.00 92 1016.9
20200128031806 24 246 0.0 0.0 0.00 0.00 0.00 92 1016.8
20200128031306 25 239 0.0 0.0 0.00 0.00 0.00 92 1016.8
20200128030806 25 259 0.0 0.0 0.00 0.00 0.00 92 1016.8
20200128030306 25 254 0.0 0.0 0.00 0.00 0.00 93 1016.9
20200128025806 25 272 0.0 0.0 0.00 0.00 0.00 93 1016.8
20200128025306 25 305 0.0 0.0 0.00 0.00 0.00 93 1016.7
20200128024806 25 274 0.0 0.0 0.00 0.00 0.00 93 1016.7
20200128024306 25 310 0.0 0.0 0.00 0.00 0.00 92 1016.8
20200128023806 25 303 0.0 0.0 0.00 0.00 0.00 92 1016.8
20200128023306 25 42 0.0 0.0 0.00 0.00 0.00 92 1016.9
20200128022806 25 279 0.0 0.0 0.00 0.00 0.00 92 1016.9
20200128022306 25 279 0.0 0.0 0.00 0.00 0.00 93 1016.9
20200128021805 25 279 0.0 0.0 0.00 0.00 0.00 93 1016.8
20200128021306 25 279 0.0 0.0 0.00 0.00 0.00 93 1016.8
20200128020806 25 275 0.0 0.0 0.00 0.00 0.00 93 1016.9
20200128020306 25 222 0.0 0.0 0.00 0.00 0.00 93 1016.7
20200128015806 25 238 0.0 2.0 0.00 0.00 0.00 93 1016.8
20200128015306 26 276 0.0 0.0 0.00 0.00 0.00 93 1017.0
20200128014806 26 290 0.0 0.0 0.00 0.00 0.00 93 1017.0
20200128014305 26 258 0.0 1.0 0.00 0.00 0.00 93 1016.9
20200128013806 26 261 0.0 0.0 0.00 0.00 0.00 93 1016.9
20200128013306 26 245 0.0 0.0 0.00 0.00 0.00 93 1016.8
20200128012807 26 261 0.0 0.0 0.00 0.00 0.00 92 1016.8
20200128012306 26 221 0.0 0.0 0.00 0.00 0.00 92 1016.9
20200128011806 26 257 0.0 0.0 0.00 0.00 0.00 92 1016.9
20200128011305 26 238 0.0 0.0 0.00 0.00 0.00 92 1016.8
20200128010806 26 271 0.0 0.0 0.00 0.00 0.00 92 1016.9
20200128010306 26 278 0.0 0.0 0.00 0.00 0.00 92 1016.9
20200128005806 26 261 0.0 0.0 0.00 0.00 0.00 92 1016.9
20200128005306 26 263 0.0 0.0 0.00 0.00 0.00 92 1016.8
20200128004806 26 263 0.0 0.0 0.00 0.00 0.00 92 1016.8
20200128004306 26 270 0.0 0.0 0.00 0.00 0.00 92 1016.7
20200128003806 26 284 0.0 0.0 0.00 0.00 0.00 92 1016.7
20200128003306 26 339 0.0 0.0 0.00 0.00 0.00 92 1016.6
20200128002806 26 281 0.0 0.0 0.00 0.00 0.00 92 1016.6
20200128002306 26 259 0.0 0.0 0.00 0.00 0.00 92 1016.5
20200128001806 27 294 0.0 0.0 0.00 0.00 0.00 92 1016.3
20200128001306 27 306 0.0 0.0 0.00 0.00 0.00 92 1016.3
20200128000808 27 288 0.0 0.0 0.00 0.00 0.00 92 1016.3
20200128000307 27 276 0.0 0.0 0.00 0.00 0.00 92 1016.3
20200127235806 27 268 0.0 0.0 0.00 0.00 0.00 92 1016.3
20200127235305 27 291 0.0 0.0 0.00 0.00 0.00 91 1016.3
20200127234806 27 294 0.0 0.0 0.00 0.00 0.00 91 1016.3
20200127234305 27 265 0.0 0.0 0.00 0.00 0.00 91 1016.3
20200127233805 27 263 0.0 0.0 0.00 0.00 0.00 91 1016.3
20200127233306 27 260 0.0 0.0 0.00 0.00 0.00 91 1016.3
20200127232805 27 251 0.0 0.0 0.00 0.00 0.00 91 1016.2
20200127232305 27 203 0.0 0.0 0.00 0.00 0.00 91 1016.2
20200127231806 27 269 0.0 0.0 0.00 0.00 0.00 91 1016.2
20200127231305 27 215 0.0 0.0 0.00 0.00 0.00 91 1016.2
20200127230806 27 246 0.0 0.0 0.00 0.00 0.00 91 1016.1
20200127230305 28 263 0.0 0.0 0.00 0.00 0.00 91 1016.0
20200127225306 28 294 0.0 0.0 0.00 0.00 0.00 91 1015.9
20200127224305 28 254 0.0 0.0 0.00 0.00 0.00 90 1015.8
20200127223805 28 279 0.0 0.0 0.00 0.00 0.00 90 1015.8
20200127222805 28 270 0.0 0.0 0.00 0.00 0.00 90 1015.7
20200127222306 28 241 0.0 0.0 0.00 0.00 0.00 90 1015.8
20200127221806 28 241 0.0 0.0 0.00 0.00 0.00 89 1015.7
20200127221305 28 241 0.0 0.0 0.00 0.00 0.00 89 1015.7
20200127220806 28 254 0.0 0.0 0.00 0.00 0.00 89 1015.7
20200127220305 28 306 0.0 0.0 0.00 0.00 0.00 89 1015.6
20200127215806 29 231 0.0 0.0 0.00 0.00 0.00 89 1015.6
20200127215305 29 239 0.0 0.0 0.00 0.00 0.00 89 1015.5
20200127214805 29 279 0.0 0.0 0.00 0.00 0.00 89 1015.5
20200127213805 29 242 0.0 0.0 0.00 0.00 0.00 88 1015.5
20200127210806 29 242 0.0 0.0 0.00 0.00 0.00 86 1015.3
20200127210306 29 240 0.0 0.0 0.00 0.00 0.00 86 1015.3
20200127205806 30 269 0.0 0.0 0.00 0.00 0.00 86 1015.3
20200127205306 30 236 0.0 0.0 0.00 0.00 0.00 87 1015.2
20200127204806 30 242 0.0 0.0 0.00 0.00 0.00 86 1015.2
20200127204305 30 286 0.0 0.0 0.00 0.00 0.00 87 1015.2
20200127203805 30 286 0.0 0.0 0.00 0.00 0.00 86 1015.2
20200127203305 30 281 0.0 0.0 0.00 0.00 0.00 86 1015.2
20200127202805 30 268 0.0 0.0 0.00 0.00 0.00 86 1015.2
20200127202306 30 224 0.0 0.0 0.00 0.00 0.00 85 1015.2
20200127201805 30 278 0.0 0.0 0.00 0.00 0.00 85 1015.3
20200127201305 30 278 0.0 0.0 0.00 0.00 0.00 85 1015.3
20200127200805 30 298 0.0 0.0 0.00 0.00 0.00 85 1015.3
20200127200306 30 289 0.0 0.0 0.00 0.00 0.00 85 1015.3
20200127195805 30 275 0.0 0.0 0.00 0.00 0.00 84 1015.3
20200127195305 30 147 0.0 0.0 0.00 0.00 0.00 84 1015.3
20200127194806 31 317 0.0 0.0 0.00 0.00 0.00 85 1015.4
20200127194305 31 297 0.0 0.0 0.00 0.00 0.00 85 1015.5
20200127193806 31 300 0.0 0.0 0.00 0.00 0.00 84 1015.5
20200127193305 31 355 0.0 0.0 0.00 0.00 0.00 85 1015.5
20200127192806 31 299 0.0 0.0 0.00 0.00 0.00 85 1015.5
20200127192305 31 274 0.0 0.0 0.00 0.00 0.00 85 1015.5
20200127191805 31 278 0.0 0.0 0.00 0.00 0.00 85 1015.5
20200127191305 31 313 0.0 0.0 0.00 0.00 0.00 84 1015.5
20200127190806 31 285 0.0 0.0 0.00 0.00 0.00 83 1015.5
20200127190305 31 18 0.0 0.0 0.00 0.00 0.00 83 1015.6
20200127185805 31 225 0.0 0.0 0.00 0.00 0.00 83 1015.5
20200127185305 31 225 0.0 0.0 0.00 0.00 0.00 82 1015.5
20200127184805 31 259 0.0 0.0 0.00 0.00 0.00 82 1015.5
20200127184307 31 0 0.0 0.0 0.00 0.00 0.00 83 1015.5
20200127183806 31 11 0.0 0.0 0.00 0.00 0.00 82 1015.5
20200127183306 31 257 0.0 0.0 0.00 0.00 0.00 83 1015.5
20200127182805 31 257 0.0 0.0 0.00 0.00 0.00 83 1015.6
20200127182305 31 252 0.0 0.0 0.00 0.00 0.00 83 1015.6
20200127181805 31 271 0.0 0.0 0.00 0.00 0.00 84 1015.5
20200127181305 31 244 0.0 0.0 0.00 0.00 0.00 84 1015.6
20200127180805 31 275 0.0 0.0 0.00 0.00 0.00 83 1015.7
20200127180305 31 45 0.0 0.0 0.00 0.00 0.00 84 1015.7
20200127175805 31 319 0.0 0.0 0.00 0.00 0.00 84 1015.7
20200127175305 31 284 0.0 0.0 0.00 0.00 0.00 86 1015.7
20200127174805 31 284 0.0 0.0 0.00 0.00 0.00 85 1015.8
20200127174305 31 284 0.0 0.0 0.00 0.00 0.00 86 1015.8
20200127173806 30 286 0.0 0.0 0.00 0.00 0.00 87 1015.7
20200127173305 30 286 0.0 0.0 0.00 0.00 0.00 86 1015.8
20200127172805 31 229 0.0 0.0 0.00 0.00 0.00 85 1015.8
20200127172306 31 269 0.0 0.0 0.00 0.00 0.00 84 1015.9
20200127171805 31 268 0.0 0.0 0.00 0.00 0.00 85 1015.9
20200127171305 31 268 0.0 0.0 0.00 0.00 0.00 85 1015.9
20200127170805 31 267 0.0 0.0 0.00 0.00 0.00 85 1015.9
20200127170304 31 285 0.0 0.0 0.00 0.00 0.00 86 1016.0
20200127165806 31 290 0.0 0.0 0.00 0.00 0.00 86 1015.9
20200127165305 31 278 0.0 0.0 0.00 0.00 0.00 87 1016.0
20200127164805 30 277 0.0 0.0 0.00 0.00 0.00 86 1016.0
20200127164305 30 277 0.0 0.0 0.00 0.00 0.00 87 1016.0
20200127163805 30 277 0.0 0.0 0.00 0.00 0.00 88 1016.0
20200127163306 30 277 0.0 0.0 0.00 0.00 0.00 89 1016.0
20200127162805 30 277 0.0 0.0 0.00 0.00 0.00 90 1016.0
20200127162305 29 277 0.0 0.0 0.00 0.00 0.00 91 1016.0
20200127161805 29 277 0.0 0.0 0.00 0.00 0.00 92 1016.0
20200127161305 29 277 0.0 0.0 0.00 0.00 0.00 92 1016.0
20200127160805 29 279 0.0 0.0 0.00 0.00 0.00 93 1016.0
20200127160305 29 279 0.0 0.0 0.00 0.00 0.00 94 1016.0
20200127155804 29 279 0.0 0.0 0.00 0.00 0.00 94 1016.0
20200127155305 29 279 0.0 0.0 0.00 0.00 0.00 94 1016.0
20200127154805 29 268 0.0 0.0 0.00 0.00 0.00 95 1015.9
20200127154305 29 276 0.0 0.0 0.00 0.00 0.00 95 1015.9
20200127153805 29 250 0.0 0.0 0.00 0.00 0.00 96 1015.9
20200127153305 28 263 0.0 0.0 0.00 0.00 0.00 96 1015.9
20200127152805 28 288 0.0 0.0 0.00 0.00 0.00 96 1015.8
20200127151805 28 288 0.0 0.0 0.00 0.00 0.00 97 1015.8
20200127151305 28 303 0.0 0.0 0.00 0.00 0.00 97 1015.8
20200127150804 28 302 0.0 0.0 0.00 0.00 0.00 97 1015.8
20200127150305 27 275 0.0 0.0 0.00 0.00 0.00 97 1015.8
20200127145805 27 275 0.0 0.0 0.00 0.00 0.00 97 1015.8
20200127145304 27 275 0.0 0.0 0.00 0.00 0.00 97 1015.7
20200127144805 27 275 0.0 0.0 0.00 0.00 0.00 97 1015.6
20200127144305 27 275 0.0 0.0 0.00 0.00 0.00 97 1015.6
20200127143805 27 313 0.0 0.0 0.00 0.00 0.00 97 1015.4
20200127143305 27 321 0.0 0.0 0.00 0.00 0.00 97 1015.4
20200127142805 27 321 0.0 0.0 0.00 0.00 0.00 97 1015.2